Location: Kikino
(54.4440°N, 112.0940°W)
Time: 06:38:47
(UTC+00:00)

deb Explorer IX - Pass Details

Date: 27 May 2024
Orbit: 511 x 884 km, 38.7° (Epoch: 23 June)

Event Time Altitude Azimuth Distance (km) Brightness Sun altitude
Rises 04:45:46 0° 232° (SW) 3,148 ? -6.8°
Reaches altitude 10° 04:49:47 10° 203° (SSW) 2,123 ? -7.2°
Maximum altitude 04:51:39 12° 180° (S) 1,938 ? -7.3°
Drops below altitude 10° 04:53:27 10° 158° (SSE) 2,028 ? -7.5°
Enters shadow 04:53:51 - 153° (SSE) 2,082 ? -7.5°
